This is the latest recevied weather packets stored in our database for station/object VA5EVR-13. If no packets are shown the sender has not sent any weather packets the latest 10 day(s).
| Time | Temp. | Humidity | Pressure | Rain* | Wind** | Luminosity | Snow |
|---|---|---|---|---|---|---|---|
| 1778076612 | 8.33° C | 42% | 88.8 hPa | 0 mm | - | - | - |
| 1778076017 | 7.78° C | 45% | 88.8 hPa | 0 mm | - | - | - |
| 1778075412 | 6.67° C | 45% | 88.8 hPa | 0 mm | - | - | - |
| 1778074812 | 6.11° C | 46% | 88.8 hPa | 0 mm | - | - | - |
| 1778074212 | 4.44° C | 47% | 88.8 hPa | 0 mm | - | - | - |
| 1778073611 | 2.22° C | 47% | 88.8 hPa | 0 mm | - | - | - |
| 1778071811 | -6.11° C | 61% | 88.8 hPa | 0 mm | - | - | - |
| 1778071212 | -7.22° C | 63% | 88.8 hPa | 0 mm | - | - | - |
| 1778070611 | -7.78° C | 62% | 88.8 hPa | 0 mm | - | - | - |
| 1778070011 | -8.89° C | 61% | 88.8 hPa | 0 mm | - | - | - |
| 1778069412 | -9.44° C | 63% | 88.8 hPa | 0 mm | - | - | - |
| 1778068811 | -10° C | 66% | 88.8 hPa | 0 mm | - | - | - |
| 1778068211 | -10° C | 68% | 88.8 hPa | 0 mm | - | - | - |
| 1778067613 | -10.56° C | 72% | 88.8 hPa | 0 mm | - | - | - |
| 1778067011 | -10° C | 71% | 88.8 hPa | 0 mm | - | - | - |
| 1778066411 | -10° C | 69% | 88.8 hPa | 0 mm | - | - | - |
| 1778065812 | -10° C | 69% | 88.8 hPa | 0 mm | - | - | - |
| 1778065212 | -10° C | 66% | 88.8 hPa | 0 mm | - | - | - |
| 1778064612 | -10° C | 66% | 88.8 hPa | 0 mm | - | - | - |
| 1778064013 | -10° C | 68% | 88.8 hPa | 0 mm | - | - | - |
| 1778063411 | -10° C | 69% | 88.8 hPa | 0 mm | - | - | - |
| 1778062812 | -10.56° C | 71% | 88.8 hPa | 0 mm | - | - | - |
| 1778062212 | -10.56° C | 75% | 88.8 hPa | 0 mm | - | - | - |
| 1778061612 | -10.56° C | 71% | 88.8 hPa | 0 mm | - | - | - |
| 1778061013 | -10.56° C | 69% | 88.8 hPa | 0 mm | - | - | - |
* Rain latest hour (hover to see other rain measurements)
** Current wind speed in m/s (hover to see current wind gust speed)